Location: *
(46.0770°N, 1.6444°E)
Time: 03:28:37
(UTC+00:00)

BREEZE-M DEB (TANK) - Pass Details

Date: 16 September 2019
Orbit: 676 x 22252 km, 51.1° (Epoch: 15 October)

Event Time Altitude Azimuth Distance (km) Brightness Sun altitude
Rises 21:14:57 0° 295° (WNW) 3,261 7.3 -30.8°
Reaches altitude 10° 21:16:33 10° 296° (WNW) 2,561 6.5 -31.0°
Maximum altitude 21:21:44 85° 24° (NNE) 1,517 4.3 -31.7°
Enters shadow 21:24:18 56° 109° (ESE) 2,217 4.9 -32.0°
